Find Kosmos-2371

NORAD ID: 26394 Int'l Des: 2000-036 Owner: VKSR Country: RU operational
HEOCIRCULARGSO

Current View

Loading 3D Globe...

About Kosmos-2371

Description loading...

Upcoming Passes

Passes for default location (London). Set your location on the main map for personalized predictions.

Altitude History

Loading altitude history...

Two-Line Element Set

1 26394U 00036A 26149.92439230 -.00000064 00000-0 00000+0 0 9997
2 26394 13.9821 7.6498 0001921 169.3089 113.5232 1.00270647 94853
Epoch: May 29, 2026 • Age: 21 hours

Current Status

Altitude 35784.8 km
Velocity 3.07 km/s
Sub-Earth Point -10.88°S, 69.43°E
Launch Date Jul 4, 2000
Age 25.9 years
Type other

Technical Details

Classification Payload
Mass 2100.00 kg
Dry Mass 2000.00 kg
Total Mass 2100.00 kg
Length 5.50 m
Diameter 2.50 m
Span 9.00 m
Shape Cyl + 2 Pan
Manufacturer NPOPMR
Bus Type Geizer
Phase Status In Orbit
Owner/State VKSR/RU

Most Searched